LKKB Weather Reports


time (UTC)temp
C
wind
direction
speed
KPH
gust
KPH
rain 1hr
cm
rain 24hr
cm
rain mn
cm
humidity
%
barometer
mb
20260506194402 13 50 8.0 0.0 0.00 0.00 0.00 87 1005.0
20260506193103 15 0 3.2 0.0 0.00 0.00 0.00 87 1005.0
20260506192306 15 320 4.8 0.0 0.00 0.00 0.00 82 1005.0
20260506192032 15 80 8.0 0.0 0.00 0.00 0.00 82
20260506190217 15 50 4.8 0.0 0.00 0.00 0.00 82 1005.0
20260506183103 15 70 11.3 0.0 0.00 0.00 0.00 82 1004.0
20260506181940 15 70 11.3 0.0 0.00 0.00 0.00 82
20260506180104 16 50 8.0 0.0 0.00 0.00 0.00 77 1004.0
20260506173102 16 70 8.0 0.0 0.00 0.00 0.00 77 1004.0
20260506171851 16 70 8.0 0.0 0.00 0.00 0.00 72
20260506170103 17 60 8.0 0.0 0.00 0.00 0.00 67 1004.0
20260506163103 16 90 11.3 0.0 0.00 0.00 0.00 82 1004.0
20260506162108 16 190 8.0 0.0 0.00 0.00 0.00 72
20260506160212 16 260 9.7 0.0 0.00 0.00 0.00 72 1005.0
20260506153511 17 290 12.9 0.0 0.00 0.00 0.00 63 1004.0
20260506153102 18 310 11.3 0.0 0.00 0.00 0.00 59 1004.0
20260506151923 18 310 11.3 0.0 0.00 0.00 0.00 55
20260506143102 20 340 9.7 0.0 0.00 0.00 0.00 52 1005.0
20260506141909 21 10 8.0 0.0 0.00 0.00 0.00 46
20260506140210 21 0 3.2 0.0 0.00 0.00 0.00 46 1005.0
20260506133102 21 240 9.7 0.0 0.00 0.00 0.00 46 1005.0
20260506131908 21 210 8.0 0.0 0.00 0.00 0.00 46
20260506130103 21 220 9.7 0.0 0.00 0.00 0.00 49 1005.0
20260506123103 20 220 4.8 0.0 0.00 0.00 0.00 49 1006.0
20260506121908 20 220 14.5 0.0 0.00 0.00 0.00 49
20260506120103 20 250 12.9 0.0 0.00 0.00 0.00 52 1006.0
20260506113103 20 230 16.1 0.0 0.00 0.00 0.00 52 1006.0
20260506111854 18 230 14.5 0.0 0.00 0.00 0.00 52
20260506110103 18 230 16.1 0.0 0.00 0.00 0.00 55 1006.0
20260506103103 18 220 19.3 0.0 0.00 0.00 0.00 59 1007.0
20260506102055 17 210 19.3 0.0 0.00 0.00 0.00 59
20260506093103 17 220 16.1 0.0 0.00 0.00 0.00 59 1007.0
20260506091853 17 210 19.3 0.0 0.00 0.00 0.00 63
20260506083103 17 210 20.9 0.0 0.00 0.00 0.00 67 1007.0
20260506081851 16 220 19.3 0.0 0.00 0.00 0.00 67
20260506080210 16 220 19.3 0.0 0.00 0.00 0.00 72 1006.0
20260506073103 16 220 19.3 0.0 0.00 0.00 0.00 72 1006.0
20260506071853 15 220 19.3 0.0 0.00 0.00 0.00 77
20260506070103 15 210 16.1 0.0 0.00 0.00 0.00 77 1006.0
20260506061855 13 200 19.3 0.0 0.00 0.00 0.00 82
20260506050210 12 220 14.5 0.0 0.00 0.00 0.00 87 1006.0
20260506043103 12 220 16.1 0.0 0.00 0.00 0.00 93 1006.0
20260506042051 12 210 19.3 0.0 0.00 0.00 0.00 87
20260506033102 12 220 12.9 0.0 0.00 0.00 0.00 93 1006.0
20260506031854 12 220 14.5 0.0 0.00 0.00 0.00 93
20260506030103 12 210 14.5 0.0 0.00 0.00 0.00 93 1006.0
20260506023103 12 220 12.9 0.0 0.00 0.00 0.00 93 1006.0
20260506021854 12 200 8.0 0.0 0.00 0.00 0.00 99
20260506020213 12 200 8.0 0.0 0.00 0.00 0.00 93 1006.0
20260506015004 12 180 8.0 0.0 0.00 0.00 0.00 93 1006.0
20260506013102 12 170 4.8 0.0 0.00 0.00 0.00 100 1006.0
20260506012702 12 170 4.8 0.0 0.00 0.00 0.00 100 1006.0
20260506011953 12 150 3.2 0.0 0.00 0.00 0.00 93
20260506011902 12 160 8.0 0.0 0.00 0.00 0.00 93 1006.0
20260506003209 12 0 3.2 0.0 0.00 0.00 0.00 93 1006.0
20260506001851 12 280 8.0 0.0 0.00 0.00 0.00 93
20260505233103 12 0 1.6 0.0 0.00 0.00 0.00 93 1006.0
20260505231852 12 290 3.2 0.0 0.00 0.00 0.00 93
20260505230212 12 290 8.0 0.0 0.00 0.00 0.00 93 1006.0
20260505224003 12 290 11.3 0.0 0.00 0.00 0.00 93 1006.0
20260505223103 13 290 12.9 0.0 0.00 0.00 0.00 93 1006.0
20260505221851 13 270 22.5 0.0 0.00 0.00 0.00 87
20260505220703 13 270 20.9 0.0 0.00 0.00 0.00 93 1006.0
20260505213102 15 260 20.9 0.0 0.00 0.00 0.00 87 1006.0
20260505211925 16 280 14.5 0.0 0.00 0.00 0.00 77
20260505211808 16 260 20.9 0.0 0.00 0.00 0.00 82 1006.0
20260505210218 16 290 12.9 0.0 0.00 0.00 0.00 77 1006.0
20260505203102 17 240 20.9 0.0 0.00 0.00 0.00 59 1004.0
20260505202903 17 240 20.9 0.0 0.00 0.00 0.00 59 1004.0
20260505201908 17 320 8.0 0.0 0.00 0.00 0.00 63
20260505200219 17 320 9.7 0.0 0.00 0.00 0.00 63 1003.0